Theta_e
334 333 333 333 333 333 331 331 330 330 328 324 319 318 321 326 330 332 332 329 324 320 320 320 319 317 316 317 317 318 318 317 317 318 318 318 319 320 321 321 320 321 324 326 328 330 331 334 336 338 340 340 340 339 339 340 341 344 348 350 350 349 349 350 351 351 351 350 350 349 345 339 335 334
334 334 334 334 334 333 332 331 330 330 329 324 318 317 318 321 325 327 328 326 323 320 320 320 319 318 317 317 317 318 318 317 318 318 318 318 319 320 321 322 322 321 322 325 327 329 330 331 333 335 338 340 341 339 338 338 338 340 344 348 350 349 348 350 351 351 351 351 350 350 348 344 339 335
334 335 335 334 334 334 333 332 331 329 329 326 320 317 318 319 320 323 325 326 323 320 320 320 320 319 319 318 318 318 318 317 318 318 318 318 318 320 321 322 322 322 323 324 326 328 330 331 332 333 335 338 340 340 339 338 338 339 341 344 347 349 349 349 351 351 351 351 351 350 349 347 344 339
334 334 335 335 334 335 334 333 332 330 329 328 324 318 317 318 319 320 322 325 323 320 320 321 321 321 321 320 319 319 318 317 317 317 317 318 318 319 321 321 322 323 323 324 325 328 330 332 333 333 334 335 337 339 340 339 339 339 341 343 344 347 349 349 350 351 352 351 351 350 350 349 347 344
333 334 334 334 334 334 335 334 332 331 329 329 327 323 319 317 318 319 321 323 322 321 320 321 321 322 322 322 320 320 319 317 317 318 318 318 318 319 320 321 322 323 324 325 326 327 329 331 333 334 334 335 335 336 337 340 341 341 342 343 343 344 346 348 348 349 351 351 350 350 350 349 348 347
332 332 333 334 334 334 335 334 333 331 330 329 328 327 323 319 317 318 320 321 322 321 321 321 321 322 323 323 321 320 320 318 317 318 318 318 319 319 320 321 322 323 324 325 326 327 329 330 332 333 334 335 335 335 335 338 342 343 343 345 345 344 345 347 347 348 349 350 350 349 349 349 348 347
331 332 332 332 333 333 334 334 333 332 330 329 328 328 327 324 321 319 318 320 321 321 321 321 322 322 323 324 323 321 320 318 318 318 318 319 319 319 320 320 321 322 323 325 326 328 329 331 332 333 334 334 334 335 335 337 341 344 345 345 346 346 346 347 347 348 348 349 349 349 349 349 348 347
332 331 332 331 331 331 333 333 333 332 331 329 329 328 328 327 326 324 321 319 320 321 322 322 322 322 323 324 324 322 321 320 318 318 319 319 319 319 319 320 321 321 323 324 326 328 330 331 333 334 335 334 334 335 335 336 340 345 346 345 345 345 345 346 347 348 349 349 349 349 349 349 348 347
332 332 332 331 330 330 331 332 333 332 331 330 329 328 328 328 327 326 324 321 321 322 322 322 322 323 323 324 324 324 322 320 319 319 319 319 319 319 319 319 320 321 322 323 324 327 329 331 333 335 335 335 335 335 336 337 340 343 346 346 345 345 344 344 345 346 348 349 350 350 349 349 348 348
332 333 333 332 331 330 331 331 331 331 331 330 330 329 328 328 327 325 325 324 322 322 322 322 322 323 324 324 324 324 323 321 319 319 319 319 320 319 319 319 319 320 321 322 323 325 328 329 330 334 336 336 336 336 336 338 340 343 346 346 346 345 345 345 344 345 346 348 349 349 349 349 348 348
332 333 333 332 331 330 330 330 330 330 330 330 329 329 328 328 327 325 325 325 323 322 322 322 323 324 324 324 324 324 323 320 319 319 319 319 320 319 319 319 319 320 321 322 323 324 325 326 326 330 334 337 337 337 337 337 338 341 345 346 345 345 345 345 345 345 345 346 347 347 348 348 348 348
332 333 333 332 330 329 328 328 329 329 329 328 328 327 328 328 327 326 325 325 324 323 322 323 324 325 324 324 323 323 322 320 319 319 319 320 320 319 319 319 319 320 321 321 322 323 325 326 326 328 333 336 338 338 338 337 337 337 340 342 343 343 343 344 344 344 345 345 346 346 346 346 346 347
330 331 330 331 330 329 328 328 329 330 329 327 327 326 327 327 327 326 325 324 324 323 323 324 325 325 324 324 323 322 321 319 319 319 319 320 320 319 319 319 319 320 321 321 323 324 325 327 328 329 333 336 338 339 339 338 338 337 336 337 338 340 342 343 343 343 344 344 345 345 344 344 345 346
328 328 328 328 329 329 330 330 330 330 329 328 326 326 326 327 327 326 325 325 324 324 324 325 325 325 324 324 323 322 322 321 320 320 320 320 319 319 319 319 319 320 321 322 323 324 325 327 329 331 334 336 338 339 339 338 337 336 335 334 335 338 341 342 342 342 342 342 344 344 344 344 345 346
327 326 326 326 326 327 328 329 330 330 329 328 327 326 326 325 326 326 326 326 325 325 325 325 325 324 324 324 323 323 322 321 320 320 320 319 319 319 319 319 319 320 321 322 323 324 324 326 329 331 334 336 339 340 340 338 337 336 335 335 336 338 340 340 340 340 341 341 342 343 344 344 345 346
327 327 326 326 325 325 325 326 328 329 329 330 328 327 326 325 325 326 326 326 326 326 325 325 324 324 324 324 323 323 322 321 320 320 319 319 319 318 318 319 319 319 320 321 323 324 324 324 326 328 331 334 338 340 340 339 338 338 339 338 338 339 340 339 339 339 340 341 341 342 344 344 345 345
328 327 326 325 325 325 324 324 326 327 328 330 330 328 326 325 324 325 326 326 326 326 326 325 324 324 324 323 323 322 321 321 320 320 319 319 318 318 318 318 319 319 320 321 322 323 324 324 326 328 330 333 337 339 340 340 339 340 341 340 340 340 340 339 339 340 342 343 342 343 344 345 345 345
329 328 326 325 325 323 322 324 326 328 329 330 331 329 328 326 324 325 326 326 325 324 323 324 323 322 322 322 322 321 320 319 319 319 318 318 317 317 318 318 318 319 319 320 322 323 323 324 326 327 329 331 335 338 340 340 340 340 340 340 341 341 340 340 339 340 343 344 344 344 345 344 344 345
329 327 325 325 324 321 322 325 328 330 330 329 330 330 329 327 326 325 325 324 322 322 322 321 321 320 320 321 320 318 317 318 318 318 317 317 317 317 318 318 319 319 320 320 322 323 323 323 325 326 327 330 334 338 340 341 341 340 340 340 340 341 340 339 339 341 341 341 343 344 345 344 345 345
327 326 325 323 323 324 327 329 330 331 330 329 329 330 329 327 326 325 324 323 322 322 321 320 319 319 320 319 318 317 317 317 317 317 317 317 317 318 318 319 319 320 321 321 322 323 323 323 324 325 326 329 334 337 340 342 342 341 340 340 341 341 340 339 339 340 340 340 343 345 345 345 346 346
326 325 324 324 325 327 328 328 329 329 329 329 329 329 328 327 326 324 322 322 322 321 320 319 319 320 320 319 317 317 317 316 317 317 317 317 317 318 319 320 320 321 321 322 322 323 324 324 325 325 326 329 333 336 339 342 342 342 341 342 342 342 342 340 339 340 339 340 344 347 347 346 347 347
325 324 324 325 325 324 324 324 326 327 327 328 328 328 327 325 323 322 322 321 321 320 319 320 320 320 320 318 317 317 317 316 316 317 318 317 318 318 319 320 321 321 322 322 323 324 324 324 325 326 327 330 333 336 339 342 343 343 343 343 343 343 343 342 341 341 340 341 345 348 348 348 348 348
324 324 324 323 322 323 323 324 325 326 327 327 326 325 324 322 321 321 320 319 318 318 319 320 320 320 320 318 318 318 318 316 316 317 317 317 318 318 319 320 321 322 323 323 323 324 325 325 325 326 329 333 336 337 338 341 343 343 343 343 344 344 344 344 344 344 343 343 345 347 348 348 348 347
324 324 324 322 321 323 324 324 325 326 326 325 323 323 322 320 319 318 317 316 316 315 316 317 317 318 318 318 318 317 317 316 316 316 316 317 318 319 319 320 322 322 323 324 324 324 324 325 325 326 330 335 339 339 340 342 343 343 343 344 344 344 346 346 346 346 346 346 345 346 347 347 347 346
325 324 322 321 321 323 324 324 325 325 325 323 322 321 320 318 316 315 314 315 315 315 315 315 315 315 316 316 316 316 316 316 316 316 316 317 318 319 320 321 322 323 323 324 324 325 325 325 327 329 333 336 338 340 342 343 344 344 344 345 345 345 346 347 347 348 348 347 346 346 346 346 346 345
323 321 320 321 322 323 323 324 324 324 324 323 321 319 317 316 314 313 313 313 313 313 313 313 314 314 314 314 315 315 315 316 315 316 317 317 318 319 320 322 323 324 324 324 325 325 325 327 329 333 337 338 339 339 340 342 345 345 345 346 346 346 346 347 347 348 348 347 347 346 346 345 344 344
320 319 320 320 321 321 321 322 324 324 323 321 318 316 315 314 312 312 312 312 311 311 312 312 313 313 313 313 313 313 315 315 315 316 317 317 318 319 321 323 324 324 325 325 325 326 328 330 332 335 338 339 340 340 340 341 344 346 346 347 347 347 347 347 347 347 348 347 347 347 346 345 343 343
319 319 319 320 321 322 322 323 323 323 320 317 315 314 312 311 311 311 311 310 308 309 310 311 311 312 312 312 312 312 314 315 316 316 317 317 317 319 321 323 325 325 325 326 325 326 328 332 335 336 338 339 340 341 341 341 343 345 346 346 347 347 347 348 347 348 347 347 348 349 348 346 345 344
318 319 320 320 321 321 321 321 320 318 316 314 312 311 310 309 309 309 309 308 307 308 308 309 310 310 310 310 311 311 313 314 315 316 316 316 317 318 320 322 323 325 325 326 326 325 327 330 334 336 338 339 339 340 340 340 342 344 345 345 345 346 347 347 348 348 349 349 349 349 349 348 347 347
318 319 319 318 317 317 317 316 315 314 313 311 311 310 308 307 307 307 307 306 306 306 307 308 308 308 308 309 310 311 312 314 314 315 315 316 317 318 320 320 321 323 325 325 326 326 326 328 331 335 338 339 339 339 339 338 340 343 344 345 344 344 345 346 347 348 348 349 349 349 349 349 349 349
319 318 316 315 314 314 314 313 313 312 311 309 309 307 306 305 305 306 306 305 305 305 306 306 307 307 307 308 309 310 311 313 313 314 314 315 316 317 319 320 320 321 322 324 325 326 326 326 327 331 336 338 338 339 338 338 339 342 344 344 344 343 343 345 346 346 347 348 348 348 348 348 349 349
317 316 315 314 313 313 312 312 311 309 308 307 305 304 303 303 304 305 305 305 304 304 305 305 305 306 306 307 308 309 310 311 312 313 314 315 316 316 318 320 321 320 320 322 325 326 327 326 326 328 332 335 337 338 338 337 338 340 342 343 344 343 343 344 344 345 346 346 345 345 346 346 347 349
316 315 314 313 312 311 310 308 307 306 304 303 302 302 301 301 303 304 304 304 304 304 304 304 304 305 305 306 307 308 309 310 312 312 313 314 315 315 316 319 321 321 320 321 323 325 327 329 329 330 332 334 336 337 337 337 336 337 339 341 343 343 343 343 343 343 343 343 343 343 343 344 346 347
315 313 313 311 310 309 307 305 304 303 302 301 300 300 299 299 301 303 303 303 303 303 303 303 304 304 304 305 306 307 308 310 310 311 312 313 314 315 316 317 320 321 320 321 321 323 326 329 332 333 333 333 333 333 334 336 337 336 336 338 340 342 343 342 342 342 342 342 342 341 340 341 343 344
312 311 310 308 307 306 305 304 304 302 301 300 299 298 298 298 300 301 302 302 302 302 303 303 303 303 304 304 305 306 307 309 309 310 311 311 313 314 315 316 319 320 320 321 321 322 323 326 330 331 331 330 329 329 330 331 334 336 336 336 338 340 342 342 341 341 341 341 341 340 338 339 340 342
310 308 307 306 305 305 304 303 303 302 301 300 299 298 297 298 298 300 301 302 302 302 302 302 302 303 303 303 304 304 306 307 308 309 309 310 312 313 314 315 317 319 319 320 321 322 323 324 325 328 330 331 333 331 327 326 328 332 335 337 338 339 341 342 342 341 341 341 340 340 339 338 339 339
307 306 305 305 305 304 303 302 302 301 300 300 299 298 297 297 297 299 301 302 301 301 301 301 302 302 302 302 303 303 304 306 307 308 308 309 310 312 313 314 316 317 318 319 320 322 323 322 322 323 326 332 337 335 327 321 323 328 331 334 337 339 339 340 340 341 341 341 340 340 339 339 339 339
306 305 305 305 304 303 302 301 301 300 299 299 299 298 296 295 295 298 301 301 301 301 301 301 301 301 302 302 302 302 303 304 305 306 307 307 309 311 312 313 314 316 317 319 320 321 322 322 322 321 321 325 332 333 326 320 319 322 327 332 334 336 338 339 340 340 341 340 340 341 341 340 340 340
305 304 304 304 303 302 301 300 299 299 298 297 298 297 294 292 295 299 301 301 301 300 300 300 301 301 301 301 301 302 302 303 304 305 306 306 307 309 310 312 313 315 316 318 319 320 320 321 321 321 321 320 322 323 322 319 316 318 323 329 333 334 335 337 339 340 340 340 340 340 341 341 341 340
303 303 303 303 302 301 300 299 299 299 297 296 295 294 292 292 296 300 300 300 300 300 300 300 300 300 300 300 301 301 302 302 303 304 304 305 306 307 309 310 312 313 315 317 319 319 320 320 320 320 321 321 320 319 319 319 318 318 320 324 328 331 334 335 336 338 339 340 340 339 340 340 339 339
302 301 301 301 301 300 299 299 299 298 295 293 292 290 291 294 298 300 300 300 300 299 299 300 300 300 300 300 300 301 301 301 302 302 303 304 304 305 307 309 310 311 313 315 317 319 319 319 318 318 318 319 320 320 320 320 320 319 319 319 321 325 329 331 333 335 336 337 339 339 339 339 339 338
302 301 301 300 300 300 299 298 298 296 292 290 289 289 292 296 299 299 300 300 299 298 299 299 299 299 299 299 300 300 301 301 301 301 302 303 303 304 305 307 308 310 311 313 316 319 319 318 318 319 319 319 319 319 320 320 320 319 319 319 319 320 322 324 327 329 331 333 335 335 336 336 337 337
302 302 301 300 300 299 298 298 297 293 290 288 289 291 295 298 299 299 300 300 299 298 298 298 299 299 299 299 299 300 300 300 300 301 301 302 302 303 304 305 307 309 310 312 316 319 319 318 319 321 320 320 320 319 319 319 319 319 319 319 319 319 319 320 321 323 325 326 328 328 329 331 333 334
302 302 301 300 300 299 298 298 296 292 289 288 290 293 297 299 298 299 300 300 299 298 298 298 298 298 298 299 299 299 299 300 300 300 301 301 301 302 303 304 306 308 309 312 315 319 320 320 321 322 321 321 321 321 320 320 320 319 319 319 319 319 319 320 320 320 321 321 322 323 324 326 327 329
302 301 300 300 299 298 298 298 295 291 288 288 289 293 297 298 298 299 300 300 299 298 297 297 298 298 298 298 298 298 299 299 299 300 300 301 301 301 302 303 304 306 308 310 312 315 318 320 320 320 320 320 321 321 321 321 320 320 320 320 319 319 319 319 319 320 320 320 320 320 321 323 324 326
Wind_Speed
11 12 12 13 13 11 10 11 10 10 9 8 8 8 7 5 3 2 3 3 4 7 11 11 15 21 24 25 27 28 29 30 31 31 33 33 33 33 32 31 31 32 32 33 34 35 35 35 35 36 36 38 39 41 41 41 41 42 43 44 43 43 43 42 41 41 40 39 37 36 36 36 35 34
11 13 13 14 15 13 13 13 12 12 11 10 9 9 8 8 7 5 3 4 6 7 11 13 17 23 25 26 28 29 30 31 31 31 33 34 34 34 34 33 32 32 33 33 34 35 35 36 37 36 36 36 37 39 40 41 41 42 43 45 44 43 43 43 43 42 42 41 39 38 36 36 35 35
13 14 15 16 16 16 15 15 14 14 13 12 11 11 10 10 10 9 6 3 6 9 12 18 22 24 25 27 28 30 31 32 32 32 33 34 35 36 35 35 33 32 32 33 33 34 35 35 36 37 36 35 35 36 37 39 40 41 42 44 45 44 44 44 44 44 43 42 41 40 38 37 36 35
14 15 16 17 18 18 18 17 16 16 15 14 13 13 12 12 12 13 10 5 10 18 19 21 25 25 26 28 29 30 32 32 32 33 34 35 36 36 37 36 35 34 34 33 33 34 34 34 35 36 37 36 35 35 35 37 39 40 41 43 45 45 45 44 44 44 44 43 42 41 40 38 36 35
16 17 18 19 19 19 20 20 19 18 17 16 16 15 15 15 14 15 14 10 11 21 23 22 25 27 27 28 30 31 33 34 34 34 35 36 36 36 37 37 37 37 36 35 34 34 34 34 34 35 37 37 36 36 36 36 37 39 40 41 43 45 45 44 44 44 44 43 42 41 40 39 37 36
16 17 19 20 19 19 21 22 21 21 19 18 18 19 19 20 19 18 19 16 12 17 24 25 26 28 28 28 30 31 32 34 35 34 35 36 36 35 36 37 37 37 37 37 35 34 34 34 34 35 36 37 37 37 37 37 37 37 38 39 41 43 44 43 44 44 44 44 42 41 40 39 38 37
16 16 19 20 20 20 21 23 23 22 22 21 21 22 22 23 24 22 22 22 18 16 22 25 25 27 29 30 30 31 32 33 33 33 34 35 36 36 35 36 37 37 37 37 36 35 34 34 34 35 36 36 37 37 37 37 37 37 37 38 39 40 40 40 41 42 43 44 43 41 40 39 38 38
16 17 19 20 20 20 21 23 24 23 24 24 24 25 25 26 28 28 27 26 24 19 19 23 26 27 29 31 33 32 32 33 33 32 33 34 35 36 36 36 37 37 37 37 37 35 33 33 33 34 35 36 36 36 37 37 37 37 37 37 38 38 38 38 38 40 41 43 43 42 40 40 39 38
17 17 19 20 20 20 21 22 23 23 24 25 26 27 29 29 30 30 28 27 26 23 20 23 28 28 27 30 33 33 32 33 33 32 32 33 33 34 36 37 37 37 37 37 37 35 33 32 32 33 34 35 35 35 36 36 37 36 36 36 38 38 38 38 38 39 40 41 42 42 41 40 40 38
17 18 19 20 19 19 21 21 21 22 22 24 26 27 29 31 30 29 29 29 27 25 23 24 26 28 27 28 31 33 31 30 32 33 33 33 31 32 36 38 38 37 36 37 37 35 34 33 32 32 34 34 34 35 35 36 36 36 36 36 36 37 37 37 37 38 39 40 41 41 40 40 40 39
18 19 19 19 19 19 20 20 20 20 21 22 24 26 27 29 29 28 29 29 26 24 24 23 24 26 27 27 30 33 31 28 29 31 31 31 30 32 35 37 38 39 38 38 38 37 36 34 32 31 33 34 34 34 34 35 36 36 36 36 36 36 36 36 37 37 38 38 39 39 39 39 40 39
19 20 20 19 19 19 19 19 19 19 20 21 22 23 24 25 27 27 26 26 25 23 23 22 23 23 25 26 29 31 29 25 24 26 27 31 34 34 35 37 38 38 38 37 37 37 35 33 31 29 31 34 35 34 33 34 36 37 36 36 36 35 36 36 37 37 37 37 37 37 38 38 39 38
19 20 20 21 21 21 20 20 20 19 19 20 21 22 22 23 25 25 24 24 23 22 21 21 22 21 21 24 26 27 26 25 25 26 27 31 35 35 35 38 38 35 35 35 35 35 33 31 30 29 30 32 34 34 34 34 35 37 37 37 36 36 36 36 37 37 37 37 37 37 37 37 37 36
18 19 20 21 22 22 23 22 21 20 20 20 20 21 21 21 22 23 23 23 23 21 20 21 21 17 17 23 25 26 29 29 28 29 28 29 33 33 30 33 36 33 30 30 31 32 30 28 28 29 29 31 33 34 35 34 35 36 37 37 36 36 36 36 36 37 37 37 37 37 37 36 36 35
19 19 20 21 21 23 24 24 24 22 22 22 21 20 20 19 19 21 22 23 23 21 20 20 20 18 19 24 26 27 30 30 28 29 29 28 29 28 22 21 29 33 29 26 29 32 32 29 28 29 30 31 32 33 34 34 33 35 36 36 36 35 35 35 34 34 35 36 37 37 36 35 34 33
21 21 20 21 22 23 25 26 26 25 24 23 22 21 20 18 18 19 20 22 23 23 21 20 21 22 23 24 26 27 29 30 30 30 30 28 28 28 24 21 28 36 34 29 29 33 35 32 28 30 31 30 31 33 34 34 32 32 34 34 35 35 34 34 33 33 35 36 37 37 37 36 34 32
24 24 22 21 22 23 25 27 27 25 25 24 22 21 20 19 19 19 20 21 22 23 23 23 25 27 27 25 27 30 30 30 31 29 30 31 30 29 29 30 35 40 38 32 28 29 34 32 27 28 30 29 30 32 33 34 33 32 32 32 33 34 35 35 34 34 35 36 37 38 37 37 35 33
25 24 22 21 21 22 25 27 25 23 23 22 21 21 21 21 20 20 22 23 22 21 22 24 28 30 29 29 30 32 31 31 32 31 31 34 34 34 37 40 43 44 41 37 28 24 31 32 27 28 30 27 28 31 33 34 34 32 32 31 31 32 33 34 34 33 33 34 35 37 38 38 36 34
24 22 20 19 20 22 25 24 21 20 21 21 21 22 23 22 21 22 24 24 22 22 22 23 27 29 30 30 30 30 31 33 35 36 37 39 41 41 41 41 42 42 42 39 29 21 27 31 26 27 30 27 27 30 31 33 34 33 33 32 30 30 31 32 33 32 31 32 33 34 36 36 36 34
22 20 18 18 19 22 23 20 18 19 20 20 21 23 23 22 22 24 26 24 23 24 25 25 27 28 28 28 27 29 31 33 39 41 39 40 42 38 32 30 33 36 36 36 32 24 26 29 27 27 30 27 26 29 30 31 33 32 32 32 30 29 29 30 31 31 30 31 31 32 33 33 34 34
20 19 18 17 18 19 20 19 18 18 19 20 21 22 21 21 23 26 26 25 26 27 28 28 28 27 26 25 26 28 30 34 40 39 34 35 38 32 21 18 25 31 32 32 31 26 25 28 26 26 28 27 26 28 28 30 31 30 31 31 29 28 28 28 29 30 30 30 30 30 31 32 33 33
19 19 17 16 16 18 19 19 18 17 18 19 19 18 18 20 23 25 25 27 30 30 30 30 29 26 24 24 25 28 30 35 39 37 34 36 38 32 23 19 23 28 31 32 30 25 23 27 25 22 22 22 25 28 27 28 30 30 29 29 29 29 28 27 28 28 29 29 29 29 30 31 32 33
18 17 16 16 17 17 17 17 16 15 15 15 15 16 16 18 20 22 24 27 30 31 31 31 30 29 27 25 26 28 30 35 38 37 37 39 38 35 32 28 22 16 20 27 28 23 21 23 24 21 15 11 15 24 26 27 29 29 29 29 29 29 28 27 26 27 27 28 29 29 29 30 31 32
18 17 17 17 17 15 15 16 15 13 12 13 14 14 13 14 17 21 24 26 27 27 27 27 27 29 28 27 27 29 31 35 39 39 40 42 42 40 38 35 24 15 18 24 25 25 22 22 23 24 19 10 6 12 21 26 28 28 28 30 29 28 28 27 26 26 26 26 28 29 29 30 31 31
18 19 19 18 16 14 14 14 12 12 13 13 11 10 10 12 16 19 23 25 24 23 23 23 24 26 27 28 28 29 32 36 40 42 44 45 46 44 42 37 27 21 24 24 24 27 24 21 21 22 23 18 10 9 14 20 26 29 29 29 29 28 28 28 28 27 26 27 27 28 29 30 30 30
18 19 18 17 14 13 13 13 13 13 12 9 7 8 10 12 15 18 20 20 20 20 20 21 23 24 26 27 29 30 32 36 40 44 46 48 49 49 46 36 24 20 21 21 24 28 25 22 21 20 18 16 14 12 11 12 18 25 27 27 27 27 26 27 28 28 28 27 27 28 28 29 29 29
17 17 16 15 14 14 14 13 12 9 6 4 5 7 10 12 14 16 16 16 17 18 18 19 21 23 25 26 29 31 33 37 41 43 46 50 51 52 46 30 18 18 17 16 22 27 25 21 21 22 20 15 11 10 11 10 11 18 24 26 27 27 26 27 27 28 28 28 27 27 27 28 28 28
15 14 14 13 12 11 8 6 4 2 2 2 5 8 10 11 12 13 13 15 17 17 18 19 21 23 25 26 29 31 33 36 40 41 44 50 51 50 44 28 14 14 14 12 18 25 25 20 17 21 22 19 12 8 9 11 12 16 20 22 23 25 26 26 26 27 27 27 28 28 28 29 29 28
12 11 10 7 4 3 2 1 1 1 1 3 5 7 9 10 11 12 13 15 16 17 18 20 21 24 27 28 29 31 32 34 37 39 43 49 51 50 45 33 19 11 11 11 14 21 23 18 14 15 19 19 16 13 12 11 12 16 19 18 18 21 25 25 25 26 27 27 28 30 30 30 30 30
9 6 2 1 1 1 1 1 1 1 2 3 5 6 8 9 10 12 13 14 16 17 18 20 22 25 27 28 29 30 31 33 35 37 39 44 48 49 42 32 26 19 9 8 13 18 21 17 13 13 17 20 19 18 18 15 13 16 19 19 16 15 20 24 25 25 27 28 28 30 30 29 29 30
5 5 5 3 2 1 0 1 2 2 2 3 4 5 7 9 11 12 12 13 14 16 17 20 22 24 26 28 29 30 30 31 32 35 36 37 42 46 40 29 25 26 21 10 6 16 22 22 17 14 14 16 17 18 19 18 15 14 17 21 19 13 14 22 24 24 25 26 26 27 28 29 29 30
5 6 5 3 1 1 1 1 1 0 1 3 5 6 8 10 11 12 13 14 15 16 18 19 22 24 27 28 29 30 30 30 30 33 35 34 36 41 38 26 21 25 26 22 12 5 15 20 20 19 16 14 15 18 17 15 15 14 13 17 20 15 13 17 22 23 23 23 24 26 27 28 29 30
3 3 2 2 1 1 1 1 3 4 5 6 7 9 10 12 13 13 14 15 17 18 19 20 22 24 26 27 28 28 29 31 31 32 32 32 32 34 33 26 22 22 22 23 22 14 5 9 14 17 18 16 15 16 14 12 13 15 13 13 15 15 14 15 18 21 21 22 23 25 25 26 28 28
0 1 1 1 1 1 3 5 7 8 9 10 11 11 12 13 14 14 14 15 16 17 19 20 21 23 24 26 28 27 27 30 32 31 30 30 29 29 29 26 25 25 23 23 25 23 14 7 6 10 12 11 9 7 9 11 12 14 15 14 14 14 16 16 16 18 20 21 22 23 23 24 26 27
2 2 1 0 2 2 4 6 8 8 9 11 12 13 13 13 13 14 14 15 16 17 18 20 21 22 24 25 27 27 25 27 29 30 30 30 28 28 27 25 24 27 26 25 25 25 21 14 3 6 9 9 7 6 5 5 7 10 13 15 16 16 16 16 17 18 19 20 21 21 21 22 24 26
2 2 2 3 3 3 5 6 7 7 8 9 10 12 13 13 13 14 13 14 15 16 18 19 20 22 24 25 26 26 25 25 26 28 29 29 27 26 26 26 27 28 27 27 27 26 23 19 11 1 4 4 4 3 3 5 4 4 8 11 15 16 16 16 18 20 21 21 21 22 21 21 23 26
3 4 4 4 3 4 5 5 5 6 7 8 9 11 12 13 13 13 12 12 13 14 16 18 19 21 22 24 26 27 26 24 24 25 26 27 26 25 24 25 27 29 28 29 30 28 24 21 18 11 4 1 3 3 2 5 7 3 3 7 9 12 14 14 15 18 21 23 23 23 22 20 21 24
5 5 4 3 3 3 4 4 4 6 7 8 9 11 12 12 12 11 11 12 14 15 16 18 19 20 22 23 24 26 27 25 24 23 25 26 25 24 24 23 24 26 27 28 30 31 27 23 22 19 10 2 1 1 2 2 8 9 3 5 7 8 10 13 14 15 17 20 22 23 23 22 21 22
4 3 3 3 3 3 3 3 5 6 8 9 11 12 13 13 11 11 12 13 14 15 17 19 20 20 21 22 23 24 24 25 24 23 23 24 23 22 22 22 22 23 24 25 27 30 29 28 26 23 17 10 6 7 9 9 9 15 11 1 7 8 9 11 13 14 16 18 21 21 21 21 20 19
3 3 3 3 2 2 2 4 6 8 9 10 10 11 12 12 11 11 12 13 14 15 17 18 20 21 21 22 23 23 23 24 25 23 22 23 23 23 22 21 21 21 20 20 22 26 28 29 29 27 22 16 11 14 19 18 15 20 23 16 6 4 10 11 11 12 13 15 18 19 19 19 18 16
3 3 4 3 1 1 2 4 7 9 10 9 9 10 10 9 9 10 11 12 14 15 17 18 20 21 22 22 22 23 23 24 26 26 25 24 23 24 24 23 22 21 19 16 18 22 25 27 29 29 27 23 16 13 14 13 11 15 21 24 21 14 7 6 10 12 11 11 14 16 17 18 18 16
4 3 3 2 1 2 3 5 8 9 9 8 8 9 8 8 8 9 10 12 14 15 17 19 20 21 22 22 22 22 22 22 24 25 25 25 24 24 25 23 21 20 18 16 16 18 21 25 28 28 29 29 25 16 9 7 9 12 15 18 23 26 24 20 14 9 7 8 9 9 9 10 11 12
4 3 3 2 1 2 3 6 8 9 8 8 8 7 7 7 8 9 10 12 14 16 17 18 20 21 21 22 22 22 22 22 23 23 24 24 23 22 22 22 21 19 19 18 16 17 18 20 23 24 26 27 25 18 12 11 14 16 17 17 19 22 26 29 30 27 23 17 11 7 4 5 4 4
5 4 3 2 1 2 4 7 9 9 8 8 7 6 6 7 9 10 11 12 14 15 17 18 19 20 21 21 22 22 22 22 22 22 22 23 23 22 22 22 22 22 22 21 19 17 17 17 19 22 22 22 21 18 16 15 16 17 19 20 21 20 21 23 26 32 36 34 28 21 14 7 1 2
6 5 4 2 0 2 4 6 9 9 8 7 6 5 5 7 8 9 11 12 13 14 15 17 18 20 20 21 21 22 22 23 23 23 22 23 23 23 23 23 23 23 23 22 20 17 16 17 19 20 21 21 20 18 17 17 18 19 20 21 22 22 21 20 21 26 32 35 34 32 29 23 15 5
Wind_Direction
280 275 272 273 274 274 269 265 267 270 268 263 260 260 248 230 227 277 297 257 247 298 313 314 323 332 338 340 341 341 342 344 341 337 333 330 327 325 320 311 303 298 291 286 282 281 280 279 278 277 275 271 267 264 262 260 258 257 255 253 252 251 250 249 250 251 252 253 254 255 254 253 253 254
278 274 271 271 272 273 269 267 269 269 268 265 260 259 255 248 236 226 265 272 239 267 302 306 311 322 330 335 336 336 338 340 338 334 331 329 327 324 321 315 308 302 297 290 282 278 278 277 275 275 275 274 270 266 263 261 259 257 255 253 252 251 249 248 249 250 251 252 253 254 254 254 253 254
274 272 271 270 270 271 269 266 268 268 267 265 264 263 257 256 257 246 243 269 260 263 290 303 309 316 321 325 329 331 334 337 334 332 330 328 327 324 320 317 313 307 303 297 287 279 277 276 274 272 273 273 271 268 265 262 261 258 256 253 252 251 250 249 248 249 250 251 252 253 254 255 255 254
272 270 270 270 270 271 269 266 266 268 269 266 264 265 264 262 265 262 249 244 276 282 290 300 307 313 316 317 321 325 328 331 332 330 330 329 327 323 319 317 315 311 307 302 295 284 277 275 274 272 271 271 270 270 268 265 262 259 256 253 251 250 250 250 249 248 249 250 251 252 253 255 255 254
273 271 270 269 270 271 269 267 267 267 268 268 264 265 266 263 264 265 258 249 273 290 295 299 305 310 312 312 317 320 321 324 327 327 328 328 325 321 319 317 314 311 308 304 299 290 280 275 273 272 271 270 269 269 269 267 264 260 256 252 249 249 250 250 249 249 249 249 250 251 252 254 255 255
278 275 272 271 272 272 269 267 267 267 267 267 266 265 265 265 266 263 261 258 263 282 291 295 301 307 308 307 312 317 317 318 321 321 323 325 322 319 317 315 312 311 308 304 300 295 286 278 273 271 269 268 268 267 267 267 265 261 256 252 249 248 249 250 250 250 249 249 249 250 252 253 254 255
285 281 276 275 276 274 270 268 267 267 267 266 266 267 266 265 267 266 263 261 258 268 284 291 296 303 305 303 307 312 313 313 314 314 316 318 318 317 316 313 311 310 309 305 301 297 290 282 275 270 267 266 266 265 264 265 265 262 256 252 249 247 248 250 250 249 248 248 249 250 251 252 253 254
286 284 280 278 278 275 271 269 269 268 267 267 266 266 266 265 267 269 265 260 260 263 276 286 289 295 299 299 303 307 308 308 309 308 309 312 313 314 314 312 310 309 308 304 300 296 292 286 279 271 266 264 263 262 262 262 263 261 257 252 249 247 246 248 249 248 248 249 249 249 250 251 253 254
283 284 283 279 278 276 272 271 272 271 271 272 270 267 267 267 266 267 266 265 266 263 267 280 287 291 292 293 298 302 303 303 304 304 304 307 309 311 312 310 308 307 305 303 299 295 291 288 283 275 268 263 262 261 260 260 261 260 257 253 249 247 246 246 247 247 248 249 249 249 250 250 252 252
281 282 282 280 276 274 273 274 276 277 278 279 277 274 272 270 268 266 268 270 268 264 266 276 284 288 289 289 292 298 299 299 300 301 302 304 305 308 309 308 307 306 303 301 298 293 289 286 283 278 273 266 262 260 258 258 259 258 257 253 250 248 246 245 245 246 248 249 249 249 250 250 251 251
282 282 281 279 275 273 274 276 278 280 282 283 283 282 280 276 272 268 270 271 268 267 270 275 279 284 286 286 287 293 297 295 294 297 300 302 305 306 306 304 305 305 302 299 297 293 288 286 282 278 273 269 265 261 259 257 256 255 254 252 250 248 246 244 244 245 247 249 250 250 250 250 250 250
284 282 281 278 275 273 273 276 278 279 281 284 286 288 288 283 276 270 271 272 271 270 271 274 278 281 284 285 287 292 296 292 288 292 296 299 302 304 303 301 301 301 299 298 296 293 289 286 284 280 273 268 263 260 258 255 253 252 251 251 250 248 246 245 245 246 247 249 250 250 250 250 250 249
286 283 282 279 276 276 275 277 277 276 278 282 285 289 291 287 280 274 272 272 270 270 271 274 277 278 280 284 288 291 290 286 287 293 295 294 296 300 299 298 298 297 296 294 292 290 288 285 283 279 272 266 262 258 256 254 251 250 249 249 249 248 246 245 245 245 246 247 248 249 250 250 249 247
284 282 283 282 281 280 278 278 276 273 274 278 282 288 290 287 281 275 272 271 269 270 272 274 278 278 278 282 285 286 286 288 291 294 293 291 295 299 298 296 298 297 294 291 287 286 286 284 282 278 270 264 259 256 255 253 250 247 246 245 245 245 244 242 242 243 244 245 246 247 249 249 246 244
280 280 282 284 285 284 281 280 278 274 273 274 279 286 289 284 278 273 270 270 270 270 269 272 276 276 276 281 284 284 287 291 292 292 293 293 295 297 296 296 298 298 295 289 285 284 284 282 279 277 272 264 257 252 253 254 251 247 245 243 243 243 241 240 241 242 243 243 243 244 246 246 244 241
279 278 280 283 286 287 287 285 282 277 274 273 277 285 289 283 275 274 272 271 272 272 271 272 275 275 277 282 285 285 289 291 291 293 295 294 292 290 288 286 289 292 293 287 280 280 281 279 275 273 271 266 258 252 252 254 253 249 246 243 241 241 240 240 242 244 245 243 241 241 242 242 241 240
280 278 279 282 284 288 291 290 285 280 275 274 277 284 287 283 278 279 279 278 278 277 275 274 275 278 280 281 283 287 289 290 291 294 295 293 291 287 284 283 284 288 289 283 275 275 277 276 272 269 269 267 261 254 251 252 252 251 248 243 241 241 241 242 243 244 243 241 239 239 239 239 239 239
279 279 280 282 285 291 292 290 286 281 277 277 281 285 286 283 280 282 284 286 288 286 280 275 277 281 283 281 282 288 290 290 290 292 293 294 292 288 285 285 284 284 282 275 269 270 270 269 267 265 266 266 262 255 251 250 249 249 248 245 243 242 240 239 239 240 241 241 240 239 238 237 237 238
279 279 281 285 291 294 292 286 283 282 281 280 284 286 287 284 282 284 288 290 293 296 292 284 281 284 286 283 284 290 294 295 295 295 294 294 293 289 287 285 281 278 276 268 259 258 264 263 259 260 261 262 262 257 251 248 247 247 248 247 245 243 238 234 235 237 240 242 241 238 236 234 234 236
279 279 284 290 292 290 287 284 284 286 286 284 284 286 287 286 286 288 291 294 299 302 301 295 290 289 286 282 285 293 300 304 303 301 297 294 293 290 287 284 278 274 273 264 248 244 257 256 250 254 258 257 258 257 251 246 245 246 246 246 244 241 237 232 231 235 240 242 241 236 232 231 232 234
277 282 288 291 289 286 286 288 287 287 287 286 284 285 287 288 288 291 295 300 305 306 304 302 299 295 287 281 285 296 307 313 310 303 294 292 293 291 286 284 279 275 273 262 243 235 245 247 243 247 253 253 253 255 250 244 243 245 244 244 243 241 237 232 231 235 239 239 236 232 229 229 231 232
280 286 288 289 289 289 289 287 283 281 282 283 285 286 286 287 288 294 301 307 309 309 309 308 306 302 294 286 290 300 309 315 312 302 293 292 294 290 284 283 281 277 272 260 240 226 234 240 237 238 248 252 250 249 248 243 240 243 243 242 242 241 238 234 232 234 235 233 230 229 228 228 230 230
286 288 287 290 291 288 283 278 276 278 279 282 287 285 283 285 292 300 307 309 311 312 311 309 308 306 301 296 298 305 311 315 314 306 300 298 295 289 284 282 279 274 269 255 233 216 223 232 229 227 232 247 248 245 244 241 237 239 241 240 240 239 237 235 233 231 230 229 227 226 226 227 228 227
290 291 291 292 291 284 278 274 272 273 278 286 287 280 279 290 300 306 309 309 311 311 307 305 305 304 305 306 307 311 316 320 319 315 311 307 300 292 286 282 274 259 260 252 223 206 216 224 222 221 219 221 241 236 232 233 233 235 237 236 237 236 233 232 230 228 227 226 225 226 227 227 226 223
291 294 294 294 289 281 279 276 270 272 281 286 281 273 283 298 305 309 312 311 312 310 306 306 306 307 312 314 315 318 322 325 325 322 318 314 309 301 293 286 273 252 252 244 212 201 212 218 215 214 213 217 229 224 221 226 227 229 232 233 233 233 230 227 225 224 222 223 224 226 227 226 223 219
292 294 294 292 286 282 283 282 280 282 284 277 265 274 293 302 306 312 315 316 317 315 312 312 312 314 318 318 319 324 327 329 329 325 322 321 319 316 310 298 272 246 244 231 206 203 210 213 212 207 200 206 220 221 219 224 224 224 226 229 230 230 228 225 222 221 219 219 221 222 223 221 218 216
293 292 290 289 288 287 289 288 286 285 273 250 265 291 302 306 309 315 321 328 330 325 320 320 319 320 322 322 323 325 327 329 329 326 326 329 328 327 328 317 276 252 250 226 205 207 212 212 210 207 201 200 206 211 213 215 217 216 217 220 224 226 226 225 222 221 220 219 218 219 219 217 216 216
290 290 291 293 292 290 289 288 280 253 222 260 293 302 306 310 316 324 334 342 342 335 330 328 324 323 325 325 324 324 326 328 328 328 334 338 336 336 341 338 301 266 262 237 212 214 222 228 221 212 209 206 204 208 213 212 209 205 205 211 216 220 223 224 222 222 221 219 218 217 216 215 214 215
284 287 289 293 289 276 267 247 202 194 257 289 298 303 311 323 333 341 348 351 349 342 336 331 325 324 328 328 326 327 329 332 333 336 341 343 343 345 349 350 342 311 277 251 222 216 228 247 251 233 221 216 214 215 215 213 210 203 198 196 203 215 221 221 220 221 220 219 219 218 217 216 214 213
273 263 234 159 131 132 172 205 209 232 266 282 292 303 323 342 353 357 360 358 353 345 336 331 327 327 330 331 332 335 338 340 341 342 341 343 345 345 346 350 358 360 335 268 237 224 230 249 266 255 233 221 219 219 218 217 215 206 200 195 192 205 218 219 219 220 219 219 221 220 220 221 220 219
233 187 160 142 128 127 202 227 239 253 276 302 318 331 347 360 5 6 6 4 359 350 340 334 332 332 335 338 339 342 343 342 343 344 342 342 344 344 341 344 357 6 9 359 259 233 236 247 261 266 247 225 219 222 222 221 216 205 200 198 193 193 207 212 214 219 221 222 222 220 220 221 221 222
179 163 166 173 177 228 261 242 237 331 19 12 8 6 6 8 10 10 9 8 6 1 351 343 340 341 343 344 344 345 344 341 343 347 347 344 344 343 342 344 352 0 7 12 11 273 244 249 255 264 267 255 238 230 224 221 220 212 202 198 198 200 205 204 207 214 218 216 215 216 218 220 221 222
165 164 194 227 275 323 1 58 51 38 30 25 21 16 13 11 11 12 10 8 6 5 359 351 347 347 346 345 345 347 346 343 344 348 349 346 345 345 343 342 349 356 1 5 8 7 314 259 256 257 257 250 238 230 221 214 215 213 208 203 201 205 210 207 204 207 208 206 207 211 215 218 221 223
211 288 283 289 329 26 54 46 35 27 21 16 14 13 12 12 11 10 9 7 5 5 3 357 352 349 346 345 347 348 346 343 344 348 349 347 347 349 345 342 347 357 3 5 6 8 5 337 274 238 220 204 195 199 204 207 213 214 213 214 214 213 214 212 206 204 206 208 208 208 211 217 222 224
357 347 330 76 80 78 68 49 35 26 19 12 8 6 6 8 7 6 5 4 4 6 5 2 358 355 350 347 347 347 345 342 343 346 350 351 350 349 348 346 349 355 2 6 6 8 11 10 354 193 178 159 133 107 113 155 192 207 210 215 220 220 216 213 210 209 210 212 209 205 207 215 220 223
20 66 100 102 86 70 60 51 39 26 17 10 6 3 0 359 359 360 0 1 4 8 7 5 2 358 354 350 348 347 346 345 345 346 348 351 350 348 348 351 354 357 1 5 7 9 15 21 25 51 192 166 141 122 81 78 100 170 195 202 210 214 214 212 210 208 208 210 208 205 206 211 216 221
126 119 111 97 79 61 50 43 35 23 11 2 359 359 356 351 349 353 357 0 6 11 12 9 6 2 358 354 350 348 349 349 348 348 349 349 350 350 350 351 355 358 1 4 8 12 17 24 28 26 1 237 168 154 115 58 51 60 191 193 194 203 210 210 206 205 205 206 207 208 210 213 217 222
139 130 118 99 78 57 42 31 20 10 2 354 350 351 350 347 347 352 359 5 11 15 16 14 10 6 2 358 353 349 349 349 349 350 351 351 351 351 350 349 352 357 0 3 9 15 19 25 29 31 30 10 269 165 140 63 32 28 7 218 201 193 199 204 207 208 206 206 209 212 216 219 224 230
136 132 122 106 86 55 29 14 7 359 352 349 347 346 346 347 352 359 7 11 15 18 19 17 13 9 6 3 357 351 348 348 349 349 350 351 351 350 351 350 351 356 0 4 9 15 20 24 25 25 28 29 31 61 89 97 62 46 48 118 218 217 207 205 208 210 210 212 214 216 219 224 230 237
135 133 123 117 106 64 21 5 1 354 345 343 345 344 345 350 359 8 13 16 18 21 22 19 16 13 10 6 1 356 352 351 351 350 350 352 352 354 356 355 355 358 0 3 9 14 18 21 23 25 30 37 51 71 79 82 68 53 54 61 77 210 219 219 218 215 215 215 214 211 212 217 222 225
139 128 124 126 119 46 8 356 353 348 343 344 349 348 349 357 9 17 21 23 23 24 24 22 20 16 13 10 5 360 356 354 354 354 354 354 354 356 1 2 1 0 359 356 4 14 20 24 28 34 41 46 52 60 65 66 54 42 46 54 61 73 110 180 206 213 217 216 210 207 208 210 209 205
148 134 127 115 74 23 1 352 348 346 348 354 356 353 357 11 22 26 28 28 28 27 26 24 23 19 16 14 11 5 0 357 356 355 356 356 355 357 1 3 360 358 355 351 358 16 29 32 32 36 41 44 45 45 46 51 46 35 32 40 54 65 72 79 95 127 163 187 195 201 204 202 199 194
160 151 140 117 65 23 0 354 353 353 357 1 1 0 11 26 31 32 33 31 30 29 27 24 23 22 20 17 15 11 7 3 0 359 358 359 358 356 357 359 359 1 3 3 12 31 40 33 28 32 37 39 40 41 41 43 44 40 32 28 37 53 64 69 74 80 83 88 96 105 136 171 178 189
179 177 172 164 111 22 6 0 359 360 1 3 5 10 25 36 37 36 36 34 31 29 27 25 24 22 21 20 18 15 12 9 7 5 3 2 3 2 1 1 4 9 12 14 22 35 42 36 31 34 36 36 37 39 40 40 41 41 37 30 28 34 46 56 64 70 70 68 67 66 70 78 79 253
190 193 193 190 203 9 7 2 1 2 3 7 11 15 28 38 39 38 37 35 31 28 27 26 25 23 22 22 20 16 15 15 15 14 12 10 9 9 9 9 9 12 15 18 20 24 34 41 41 38 37 37 38 39 42 44 42 40 37 31 26 26 33 41 51 60 65 63 60 61 65 69 72 77